Flight Track Log - Related Links

Times and Time Zones

All times are in EDT time to prevent confusion due to time zone crossing. See the ASH2791 flight status page for this flight to view local times or setup timezone preferences in your user account.

Time Position Orientation Groundspeed Altitude Reporting Facility
EDT Latitude Longitude Course Direction KTS MPH feet Rate Location/Type
07:46AM 32.9198 -80.0484 12° North  Level FlightAware Approximate
07:47AM 32.9986 -80.0007 306° West  Level FlightAware Approximate
07:48AM 33.0826 -79.9753 210° Southwest  Level FlightAware Approximate
07:48AM 33.0128 -80.0239 17° North 232 267 4,100  Level Jacksonville Center
07:49AM 33.0728 -80.0022 18° North 232 267 6,800 2,450 Climbing Jacksonville Center
07:50AM 33.1433 -79.9753 19° North 253 291 9,000 2,250 Climbing Jacksonville Center
07:51AM 33.2239 -79.9428 14° North 278 320 11,300 2,300 Climbing Jacksonville Center
07:52AM 33.3150 -79.9147 13° North 309 356 13,600 2,350 Climbing Jacksonville Center
07:53AM 33.4106 -79.8892 North 333 383 16,000 1,650 Climbing Jacksonville Center
07:54AM 33.5081 -79.8711 343° North 345 397 16,900 450 Climbing Jacksonville Center
07:55AM 33.6008 -79.9053 342° North 345 397 16,900  Level Jacksonville Center
07:56AM 33.6956 -79.9419 342° North 345 397 16,900 50 Level Jacksonville Center
07:57AM 33.7881 -79.9789 341° North 350 403 17,000 50 Climbing Jacksonville Center
07:58AM 33.8831 -80.0183 343° North 355 409 17,000  Level Jacksonville Center
07:59AM 33.9775 -80.0528 342° North 348 400 17,000 -300 Level Jacksonville Center
08:00AM 34.0703 -80.0897 342° North 348 400 16,400 -800 Descending Jacksonville Center
08:01AM 34.1628 -80.1269 343° North 348 400 15,400 -1,000 Descending Jacksonville Center
08:02AM 34.2556 -80.1617 342° North 348 400 14,400 -1,000 Descending Jacksonville Center
08:03AM 34.3458 -80.1967 342° North 348 400 13,400 -1,000 Descending Jacksonville Center
08:04AM 34.4342 -80.2317 341° North 348 400 12,400 -923 Descending Jacksonville Center
08:06AM 34.5761 -80.2925 342° North 328 377 11,000 -535 Descending Atlanta Center
08:07AM 34.6564 -80.3242 329° Northwest 302 348 11,000  Level Atlanta Center
08:08AM 34.7289 -80.3767 313° West 287 330 11,000 -375 Level Atlanta Center
08:09AM 34.7897 -80.4550 316° Northwest 290 334 10,200 -938 Descending Atlanta Center
08:10AM 34.8481 -80.5233 314° West 289 333 9,000 -585 Descending Atlanta Center
08:11AM 34.9042 -80.5944 314° West 276 318 9,000  Level Atlanta Center
08:12AM 34.9561 -80.6606 313° West 273 314 9,000  Level Atlanta Center
08:13AM 35.0103 -80.7319 315° West 278 320 9,000  Level Atlanta Center
08:14AM 35.0642 -80.7983 349° North 280 322 9,000  Level Atlanta Center
08:15AM 35.1378 -80.8158 North 240 276 9,000 -295 Level Atlanta Center
08:16AM 35.1958 -80.8111 45° Northeast 223 257 8,400 -1,082 Descending Atlanta Center
08:17AM 35.2383 -80.7583 45° Northeast 219 252 6,800 -1,574 Descending Atlanta Center

Login

Don't have an account? Register now (free) for customized features, flight alerts, and more!